Location: Gro� Glienicke
(52.4675°N, 13.1079°E)
Time: 02:49:38
(UTC+00:00)

USA 267 - Pass Details

Date: 06 July 2020
Orbit: 1102 x 1106 km, 123.0° (Epoch: 02 August)

Event Time Altitude Azimuth Distance (km) Brightness Sun altitude
Exits shadow 20:49:14 - 117° (ESE) 3,353 5.3 -8.7°
Reaches altitude 10° 20:50:15 10° 118° (ESE) 2,958 5.0 -8.8°
Maximum altitude 20:56:49 86° 207° (SSW) 1,112 3.3 -9.3°
Drops below altitude 10° 21:03:24 10° 297° (WNW) 2,969 6.5 -9.9°
Sets 21:05:53 0° 298° (WNW) 3,929 7.2 -10.0°
